EW9501 Weather Reports


time (UTC)temp
F
wind
direction
speed
knots
gust
knots
rain 1hr
in
rain 24hr
in
rain mn
in
humidity
%
barometer
mb
20260506091544 44 0.0 0.0 0.01 0.92 0.21 89 1007.6
20260506090042 44 0.0 0.0 0.02 0.92 0.21 90 1007.3
20260506084543 45 0.0 0.0 0.01 0.91 0.20 91 1007.6
20260506083041 45 0.0 0.0 0.02 0.91 0.20 91 1007.5
20260506081540 45 0.0 0.0 0.03 0.91 0.20 91 1007.3
20260506073039 45 0.0 0.0 0.03 0.88 0.17 91 1007.6
20260506071537 45 0.0 0.0 0.04 0.88 0.17 91 1007.8
20260506061531 46 0.0 0.0 0.07 0.84 0.13 93 1007.4
20260506050105 47 0.0 0.0 0.06 0.76 0.05 93 1007.3
20260506044652 47 0.0 0.0 0.06 0.75 0.04 93 1007.2
20260506041551 48 0.0 0.0 0.06 0.72 0.01 94 1007.4
20260506040047 48 0.0 0.0 0.06 0.70 0.70 94 1007.2
20260506034546 48 0.0 0.0 0.08 0.69 0.69 94 1007.3
20260506033045 48 0.0 0.0 0.10 0.68 0.68 93 1007.2
20260506031545 48 0.0 0.0 0.10 0.66 0.66 93 1007.2
20260506030044 48 0.0 0.0 0.10 0.64 0.64 93 1007.7
20260506024545 48 0.0 0.0 0.11 0.61 0.61 93 1007.7
20260506023054 48 0.0 0.0 0.10 0.57 0.57 93 1007.6
20260506021553 48 0.0 0.0 0.10 0.56 0.56 93 1007.6
20260506020041 48 0.0 0.0 0.09 0.54 0.54 93 1007.5
20260506014543 48 0.0 0.0 0.06 0.50 0.50 92 1007.2
20260506013037 48 0.0 0.0 0.04 0.48 0.48 92 1007.1
20260506011535 48 0.0 0.0 0.03 0.46 0.46 92 1006.8
20260506010045 49 0.0 0.0 0.04 0.45 0.45 92 1006.6
20260506004533 49 0.0 0.0 0.04 0.44 0.44 92 1006.5
20260506003033 49 0.0 0.0 0.04 0.44 0.44 92 1006.7
20260506001532 49 0.0 0.0 0.04 0.43 0.43 92 1006.7
20260506000030 49 0.0 0.0 0.03 0.41 0.41 92 1006.8
20260505234544 49 0.0 0.0 0.02 0.40 0.40 92 1006.6
20260505233035 49 0.0 0.0 0.03 0.40 0.40 92 1006.5
20260505231531 49 0.0 0.0 0.03 0.39 0.39 92 1006.3
20260505230025 50 0.0 0.0 0.04 0.38 0.38 92 1006.3
20260505224523 50 0.0 0.0 0.07 0.38 0.38 91 1006.3
20260505223023 50 0.0 0.0 0.09 0.37 0.37 92 1006.2
20260505221523 51 0.0 0.0 0.13 0.36 0.36 91 1006.3
20260505220020 51 0.0 0.0 0.14 0.34 0.34 91 1006.3
20260505214534 51 0.0 0.0 0.12 0.31 0.31 91 1006.2
20260505213017 51 0.0 0.0 0.10 0.27 0.27 91 1005.9
20260505211517 51 0.0 0.0 0.07 0.23 0.23 91 1006.0
20260505210015 51 0.0 0.0 0.04 0.20 0.20 90 1005.8
20260505204513 51 0.0 0.0 0.03 0.18 0.18 89 1005.9
20260505203017 52 0.0 0.0 0.03 0.17 0.17 88 1005.7
20260505201510 52 0.0 0.0 0.04 0.16 0.16 88 1005.9
20260505200007 52 0.0 0.0 0.06 0.16 0.16 90 1006.1
20260505194506 53 0.0 0.0 0.07 0.15 0.15 90 1006.5
20260505193002 54 0.0 0.0 0.07 0.13 0.13 89 1006.5
20260505191600 55 0.0 0.0 0.07 0.12 0.12 90 1006.4
20260505190055 56 0.0 0.0 0.07 0.10 0.10 90 1005.9
20260505184555 56 0.0 0.0 0.07 0.08 0.08 89 1005.9
20260505183054 56 0.0 0.0 0.06 0.06 0.06 88 1005.8
20260505181551 57 0.0 0.0 0.04 0.04 0.04 86 1005.5
20260505180104 58 0.0 0.0 0.03 0.03 0.03 84 1005.7
20260505174558 59 0.0 0.0 0.01 0.01 0.01 81 1005.5
20260505173046 60 0.0 0.0 0.00 0.00 0.00 76 1005.5
20260505171542 61 0.0 0.0 0.00 0.00 0.00 76 1005.5
20260505170041 60 0.0 0.0 0.00 0.00 0.00 76 1005.6
20260505164540 61 0.0 0.0 0.00 0.00 0.00 74 1005.6
20260505163039 61 0.0 0.0 0.00 0.00 0.00 73 1005.5
20260505161539 62 0.0 0.0 0.00 0.00 0.00 72 1005.5
20260505153040 62 0.0 0.0 0.00 0.00 0.00 72 1005.4
20260505151536 62 0.0 0.0 0.00 0.00 0.00 71 1005.3
20260505124529 62 0.0 0.0 0.00 0.00 0.00 70 1003.4
20260505123025 61 0.0 0.0 0.00 0.00 0.00 71 1003.3
20260505121524 61 0.0 0.0 0.00 0.00 0.00 71 1003.4
20260505120021 60 0.0 0.0 0.00 0.00 0.00 71 1002.9
20260505114519 60 0.0 0.0 0.00 0.00 0.00 71 1002.8
20260505113019 60 0.0 0.0 0.00 0.00 0.00 72 1002.3
20260505111514 60 0.0 0.0 0.00 0.00 0.00 73 1001.9
20260505101512 60 0.0 0.0 0.00 0.00 0.00 73 1001.4
20260505100012 60 0.0 0.0 0.00 0.00 0.00 73 1001.4
20260505094504 60 0.0 0.0 0.00 0.00 0.00 73 1001.4
20260505093006 61 0.0 0.0 0.00 0.00 0.00 71 1001.3